Tracking 30102 objects as of 12-Dec-2024
HD Live streaming from Space Station
objects crossing your sky now

SZ-19

Track SZ-19 now!
10-day predictions


NORAD ID: 61683
Int'l Code: 2024-195A
Perigee: 394.9 km
Apogee: 397.2 km
Inclination: 41.5 °
Period: 92.3 minutes
Semi major axis: 6767 km
RCS: Unknown
Launch date: October 23, 2024
Source: People's Republic of China (PRC)
Launch site: Jiuquan Satellite Launch Center, China (JSC)
Your satellite tracking list
Your tracking list is empty




NASA's NSSDC Master Catalog

Two Line Element Set (TLE):
1 61683U 24194A   24346.74172575  .00025360  00000-0  31323-3 0  9992
2 61683  41.4668  80.9466 0001693 235.6581 124.4097 15.59554521206835
Source of the keplerian elements: AFSPC